Regional Weather Roundup
Issued by NWS Northern Indiana

Home | Current Version | Previous Version | Text Only | Print | Product List | Glossary Off
Versions: 1 2 3 4 5 6 7 8 9 10 11 12 13 14 15 16 17 18 19 20 21 22 23 24 25 26 27 28 29 30 31 32 33 34 35 36 37 38 39 40 41 42 43 44 45 46 47 48 49 50

123
ASUS43 KIWX 221210
RWRIWX

KIWX WEATHER ROUNDUP
NATIONAL WEATHER SERVICE NORTHERN INDIANA
800 AM EDT THU JUN 22 2017

NOTE: "FAIR" INDICATES FEW OR NO CLOUDS BELOW 12,000 FEET WITH NO
SIGNIFICANT WEATHER AND/OR OBSTRUCTIONS TO VISIBILITY.

* THESE STATIONS ARE NOT UNDER NWS QUALITY CONTROL. THEY ALSO MAY NOT
  REPORT WEATHER SUCH AS PRECIPITATION OR FOG.

INZ001>027-221300-
NORTHERN INDIANA

CITY           SKY/WX    TMP DP  RH WIND       PRES   REMARKS
GARY*          PTSUNNY   77  66  69 S8        29.89R
VALPARAISO     CLOUDY    76  68  76 SW10      29.91R
6HR MIN TEMP:  72; 6HR MAX TEMP:  77;

MICHIGAN CITY* CLOUDY    73  64  73 SW8       29.89F
LAPORTE*       CLOUDY    74  67  79 SW7       29.92R
6HR MIN TEMP:  69; 6HR MAX TEMP:  74;

KNOX*          CLOUDY    72  61  68 SW7       29.92R
SOUTH BEND     CLOUDY    74  68  81 SW8       29.92R
6HR MIN TEMP:  71; 6HR MAX TEMP:  74;

ELKHART*       CLOUDY    73  66  78 SW5       29.92R
GOSHEN         CLOUDY    74  66  76 SW7       29.93R
6HR MIN TEMP:  69; 6HR MAX TEMP:  74;

MONTICELLO*    CLOUDY    73  68  83 SW8       29.92S
6HR MIN TEMP:  73; 6HR MAX TEMP:  75;

LOGANSPORT*    CLOUDY    72  68  88 SW7       29.94S
ROCHESTER*     CLOUDY    75  68  78 SW5       29.93S
WARSAW*        PTSUNNY   73  66  78 SW7       29.93R
AUBURN*        MOSUNNY   73  68  83 SW3       29.95R
FORT WAYNE     PTSUNNY   75  66  73 SW14      29.94R
6HR MIN TEMP:  69; 6HR MAX TEMP:  75;

PERU/GRISSOM   CLOUDY    74  71  89 SW9       29.93R
6HR MIN TEMP:  72; 6HR MAX TEMP:  74;

MARION*        MOSUNNY   72  66  83 SW8       29.96S

$$
INZ028>050-221300-
CENTRAL INDIANA

CITY           SKY/WX    TMP DP  RH WIND       PRES   REMARKS
LAFAYETTE      CLOUDY    73  69  87 SW7       29.93R
6HR MIN TEMP:  72; 6HR MAX TEMP:  74;

KOKOMO*        MOSUNNY   74  68  81 SW10      29.96R
6HR MIN TEMP:  73; 6HR MAX TEMP:  77;

MUNCIE*        MOSUNNY   75  67  76 SW8       29.97S
6HR MIN TEMP:  74; 6HR MAX TEMP:  77;

INDIANAPOLIS   PTSUNNY   74  68  81 S12       29.97R
6HR MIN TEMP:  71; 6HR MAX TEMP:  76;


$$
MIZ043>046-050>051-056>058-064>065-071>073-077>080-221300-
SOUTHWEST LOWER MICHIGAN

CITY           SKY/WX    TMP DP  RH WIND       PRES   REMARKS
BATTLE CREEK   CLOUDY    71  63  75 SW9       29.90R
6HR MIN TEMP:  66; 6HR MAX TEMP:  71;

BENTON HARBOR  LGT RAIN  76  65  68 SW10G20   29.86S
6HR MIN TEMP:  68; 6HR MAX TEMP:  76; 6HR PCP: TRACE;

COLDWATER*     CLOUDY    71  64  78 SW8       29.91S
6HR MIN TEMP:  66; 6HR MAX TEMP:  71;

HILLSDALE*     CLOUDY    64  57  77 SW8       29.92S
HOLLAND        CLOUDY    77  67  71 SW18G26   29.86R
6HR MIN TEMP:  64; 6HR MAX TEMP:  77;

GRAND RAPIDS   CLOUDY    72  64  76 S12       29.86R
6HR MIN TEMP:  62; 6HR MAX TEMP:  72;

KALAMAZOO      FAIR      72  62  71 SW10      29.89R
6HR MIN TEMP:  66; 6HR MAX TEMP:  72;

STURGIS*       CLOUDY    71  67  87 SW7       29.91S
6HR MIN TEMP:  67; 6HR MAX TEMP:  71;

THREE RIVERS*  FAIR      72  65  81 SW9       29.90S
6HR MIN TEMP:  66; 6HR MAX TEMP:  72;


$$
OHZ001>008-015>018-024>025-221300-
NORTHWEST OHIO

CITY           SKY/WX    TMP DP  RH WIND       PRES   REMARKS
WAUSEON*       FAIR      70  63  78 SW7       29.93R
DEFIANCE       CLOUDY    73  67  81 S7        29.94R
6HR MIN TEMP:  64; 6HR MAX TEMP:  73;

FINDLAY        CLOUDY    78  67  68 SW10      29.94R
6HR MIN TEMP:  67; 6HR MAX TEMP:  78;

TOLEDO EXPRESS CLOUDY    68  62  81 SW6       29.92R
6HR MIN TEMP:  61; 6HR MAX TEMP:  68;

TOLEDO METCALF CLOUDY    72  64  76 SW8       29.93R
6HR MIN TEMP:  63; 6HR MAX TEMP:  72;

LIMA           PTSUNNY   74  68  81 SW12      29.96S
6HR MIN TEMP:  67; 6HR MAX TEMP:  74;


$$
AND FOR LAKE MICHIGAN COASTAL AND OPEN LAKE BUOY OBSERVATIONS

STATION/POSITION TEMP    WIND        PRES    VSBY  WAVE
                 AIR SEA DIR/SP/G                  HT/PER
                 (F)     (DEG/KT/KT) (MB)    (MI)  (FT/S)
CALUMET HARBOR    76     200/  9/ 11 1010.8F
MICHIGAN CITY     76     190/ 14/ 17   N/A
BURNS HARBOR      76     210/ 13/ 17 1012.5R
SOUTH LAKE BUOY   66 60  230/ 10/ 12 1010.6R         2/ 4
4 MI NW BRIDGMAN  72 69  210/ 12/ 16 1011.1          1/ 3
MICHIGAN CITY     73 68  210/ 12/ 14   N/A           1/ 3

$$
&&




USA.gov is the U.S. government's official web portal to all federal, state and local government web resources and services.